| time (UTC) | temp F | wind direction | speed knots | gust knots | rain 1hr in | rain 24hr in | rain mn in | humidity % | barometer mb |
| 20260901190108 | 78 | 360 | 4.3 | 0.0 | 0.00 | 0.00 | 0.00 | 38 | 1013.1 |
| 20260901185558 | 78 | 360 | 4.3 | 0.0 | 0.00 | 0.00 | 0.00 | 37 | 1013.2 |
| 20260901185057 | 78 | 360 | 5.2 | 0.0 | 0.00 | 0.00 | 0.00 | 37 | 1013.3 |
| 20260901184558 | 78 | 360 | 5.2 | 0.0 | 0.00 | 0.00 | 0.00 | 37 | 1013.3 |
| 20260901184057 | 78 | 360 | 4.3 | 0.0 | 0.00 | 0.00 | 0.00 | 37 | 1013.3 |
| 20260901183056 | 78 | 360 | 4.3 | 0.0 | 0.00 | 0.00 | 0.00 | 37 | 1013.3 |
| 20260901182556 | 78 | 360 | 4.3 | 0.0 | 0.00 | 0.00 | 0.00 | 37 | 1013.4 |
| 20260901182056 | 78 | 360 | 5.2 | 0.0 | 0.00 | 0.00 | 0.00 | 37 | 1013.5 |
| 20260901181601 | 77 | 113 | 5.2 | 0.0 | 0.00 | 0.00 | 0.00 | 37 | 1013.6 |
| 20260901181054 | 77 | 90 | 5.2 | 0.0 | 0.00 | 0.00 | 0.00 | 37 | 1013.7 |
| 20260901180554 | 76 | 111 | 6.1 | 0.0 | 0.00 | 0.00 | 0.00 | 37 | 1013.8 |
| 20260901180053 | 76 | 115 | 5.2 | 0.0 | 0.00 | 0.00 | 0.00 | 37 | 1013.8 |
| 20260901175553 | 77 | 115 | 4.3 | 0.0 | 0.00 | 0.00 | 0.00 | 37 | 1013.8 |
| 20260901175053 | 77 | 110 | 3.5 | 0.0 | 0.00 | 0.00 | 0.00 | 37 | 1013.8 |
| 20260901174553 | 77 | 113 | 3.5 | 0.0 | 0.00 | 0.00 | 0.00 | 36 | 1013.8 |
| 20260901174053 | 77 | 79 | 3.5 | 0.0 | 0.00 | 0.00 | 0.00 | 37 | 1013.8 |
| 20260901173052 | 76 | 78 | 4.3 | 0.0 | 0.00 | 0.00 | 0.00 | 37 | 1013.8 |
| 20260901172551 | 76 | 86 | 5.2 | 0.0 | 0.00 | 0.00 | 0.00 | 38 | 1013.9 |
| 20260901172050 | 76 | 360 | 5.2 | 0.0 | 0.00 | 0.00 | 0.00 | 39 | 1013.9 |
| 20260901171605 | 75 | 84 | 4.3 | 0.0 | 0.00 | 0.00 | 0.00 | 40 | 1013.9 |
| 20260901171048 | 75 | 87 | 4.3 | 0.0 | 0.00 | 0.00 | 0.00 | 40 | 1013.8 |
| 20260901170549 | 75 | 107 | 3.5 | 0.0 | 0.00 | 0.00 | 0.00 | 40 | 1013.9 |
| 20260901170055 | 75 | 107 | 4.3 | 0.0 | 0.00 | 0.00 | 0.00 | 39 | 1014.0 |
| 20260901165550 | 75 | 105 | 4.3 | 0.0 | 0.00 | 0.00 | 0.00 | 42 | 1014.0 |
| 20260901165047 | 75 | 107 | 3.5 | 0.0 | 0.00 | 0.00 | 0.00 | 41 | 1014.1 |
| 20260901164551 | 74 | 92 | 3.5 | 0.0 | 0.00 | 0.00 | 0.00 | 42 | 1014.0 |
| 20260901164044 | 74 | 360 | 2.6 | 0.0 | 0.00 | 0.00 | 0.00 | 44 | 1014.0 |
| 20260901163042 | 73 | 134 | 2.6 | 0.0 | 0.00 | 0.00 | 0.00 | 47 | 1014.1 |
| 20260901162544 | 72 | 130 | 2.6 | 0.0 | 0.00 | 0.00 | 0.00 | 47 | 1014.1 |
| 20260901162039 | 72 | 360 | 2.6 | 0.0 | 0.00 | 0.00 | 0.00 | 50 | 1014.1 |
| 20260901161540 | 71 | 360 | 2.6 | 0.0 | 0.00 | 0.00 | 0.00 | 50 | 1014.2 |
| 20260901161036 | 71 | 360 | 2.6 | 0.0 | 0.00 | 0.00 | 0.00 | 52 | 1014.2 |
| 20260901160536 | 70 | 135 | 2.6 | 0.0 | 0.00 | 0.00 | 0.00 | 54 | 1014.2 |
| 20260901160038 | 70 | 134 | 2.6 | 0.0 | 0.00 | 0.00 | 0.00 | 54 | 1014.2 |
| 20260901155532 | 69 | 360 | 2.6 | 0.0 | 0.00 | 0.00 | 0.00 | 56 | 1014.1 |
| 20260901155032 | 68 | 360 | 2.6 | 0.0 | 0.00 | 0.00 | 0.00 | 56 | 1014.2 |
| 20260901154529 | 68 | 360 | 2.6 | 0.0 | 0.00 | 0.00 | 0.00 | 57 | 1014.2 |
| 20260901154028 | 67 | 161 | 3.5 | 0.0 | 0.00 | 0.00 | 0.00 | 58 | 1014.3 |
| 20260901153028 | 66 | 360 | 2.6 | 0.0 | 0.00 | 0.00 | 0.00 | 57 | 1014.4 |
| 20260901152526 | 66 | 360 | 2.6 | 0.0 | 0.00 | 0.00 | 0.00 | 59 | 1014.3 |
| 20260901152025 | 65 | 360 | 1.7 | 0.0 | 0.00 | 0.00 | 0.00 | 60 | 1014.4 |
| 20260901151523 | 65 | 360 | 1.7 | 0.0 | 0.00 | 0.00 | 0.00 | 62 | 1014.5 |
| 20260901151025 | 64 | 360 | 1.7 | 0.0 | 0.00 | 0.00 | 0.00 | 62 | 1014.5 |
| 20260901150522 | 64 | 360 | 0.9 | 0.0 | 0.00 | 0.00 | 0.00 | 62 | 1014.5 |
| 20260901150021 | 63 | 360 | 0.9 | 0.0 | 0.00 | 0.00 | 0.00 | 63 | 1014.5 |
| 20260901145520 | 63 | 360 | 0.9 | 0.0 | 0.00 | 0.00 | 0.00 | 63 | 1014.5 |
| 20260901145019 | 63 | 360 | 0.9 | 0.0 | 0.00 | 0.00 | 0.00 | 64 | 1014.5 |
| 20260901144517 | 62 | 360 | 0.9 | 0.0 | 0.00 | 0.00 | 0.00 | 65 | 1014.4 |
| 20260901144017 | 61 | 360 | 0.9 | 0.0 | 0.00 | 0.00 | 0.00 | 68 | 1014.6 |
| 20260901143014 | 60 | 322 | 0.9 | 0.0 | 0.00 | 0.00 | 0.00 | 71 | 1014.5 |
| 20260901142514 | 59 | 322 | 0.9 | 0.0 | 0.00 | 0.00 | 0.00 | 73 | 1014.6 |
| 20260901142012 | 58 | 322 | 0.0 | 0.0 | 0.00 | 0.00 | 0.00 | 74 | 1014.7 |
| 20260901141517 | 58 | 322 | 0.0 | 0.0 | 0.00 | 0.00 | 0.00 | 75 | 1014.7 |
| 20260901141010 | 57 | 322 | 0.9 | 0.0 | 0.00 | 0.00 | 0.00 | 76 | 1014.7 |
| 20260901140508 | 57 | 322 | 0.9 | 0.0 | 0.00 | 0.00 | 0.00 | 77 | 1014.7 |
| 20260901140007 | 56 | 322 | 0.9 | 0.0 | 0.00 | 0.00 | 0.00 | 79 | 1014.7 |
| 20260901135507 | 56 | 360 | 0.0 | 0.0 | 0.00 | 0.00 | 0.00 | 83 | 1014.7 |
| 20260901135004 | 55 | 360 | 0.0 | 0.0 | 0.00 | 0.00 | 0.00 | 86 | 1014.8 |
| 20260901134503 | 54 | 322 | 0.0 | 0.0 | 0.00 | 0.00 | 0.00 | 88 | 1014.7 |
| 20260901134004 | 52 | 360 | 0.9 | 0.0 | 0.00 | 0.00 | 0.00 | 89 | 1014.7 |
| 20260901133102 | 51 | 360 | 0.9 | 0.0 | 0.00 | 0.00 | 0.00 | 91 | 1014.7 |
| 20260901132600 | 50 | 360 | 0.9 | 0.0 | 0.00 | 0.00 | 0.00 | 91 | 1014.7 |
| 20260901132058 | 49 | 360 | 0.9 | 0.0 | 0.00 | 0.00 | 0.00 | 92 | 1014.6 |
| 20260901131559 | 48 | 360 | 0.0 | 0.0 | 0.00 | 0.00 | 0.00 | 93 | 1014.6 |
| 20260901131055 | 46 | 360 | 0.0 | 0.0 | 0.00 | 0.00 | 0.00 | 92 | 1014.5 |
| 20260901130554 | 45 | 360 | 0.0 | 0.0 | 0.00 | 0.00 | 0.00 | 92 | 1014.4 |
| 20260901130053 | 45 | 360 | 0.0 | 0.0 | 0.00 | 0.00 | 0.00 | 92 | 1014.4 |
| 20260901125553 | 44 | 360 | 0.0 | 0.0 | 0.00 | 0.00 | 0.00 | 91 | 1014.3 |
| 20260901125053 | 43 | 360 | 0.9 | 0.0 | 0.00 | 0.00 | 0.00 | 91 | 1014.3 |
| 20260901124558 | 42 | 360 | 0.9 | 0.0 | 0.00 | 0.00 | 0.00 | 90 | 1014.4 |
| 20260901124053 | 42 | 360 | 0.0 | 0.0 | 0.00 | 0.00 | 0.00 | 90 | 1014.4 |
| 20260901123054 | 42 | 360 | 0.0 | 0.0 | 0.00 | 0.00 | 0.00 | 90 | 1014.4 |
| 20260901122554 | 42 | 360 | 0.9 | 0.0 | 0.00 | 0.00 | 0.00 | 89 | 1014.2 |
| 20260901122055 | 43 | 360 | 0.9 | 0.0 | 0.00 | 0.00 | 0.00 | 89 | 1014.3 |
| 20260901121557 | 43 | 360 | 0.9 | 0.0 | 0.00 | 0.00 | 0.00 | 89 | 1014.3 |
| 20260901121052 | 43 | 360 | 0.0 | 0.0 | 0.00 | 0.00 | 0.00 | 89 | 1014.3 |
| 20260901120552 | 43 | 360 | 0.0 | 0.0 | 0.00 | 0.00 | 0.00 | 90 | 1014.4 |
| 20260901120051 | 43 | 360 | 0.0 | 0.0 | 0.00 | 0.00 | 0.00 | 89 | 1014.4 |
| 20260901115551 | 43 | 360 | 0.0 | 0.0 | 0.00 | 0.00 | 0.00 | 89 | 1014.3 |
| 20260901115050 | 44 | 360 | 0.9 | 0.0 | 0.00 | 0.00 | 0.00 | 89 | 1014.4 |
| 20260901114558 | 44 | 360 | 0.9 | 0.0 | 0.00 | 0.00 | 0.00 | 89 | 1014.3 |
| 20260901114049 | 44 | 360 | 1.7 | 0.0 | 0.00 | 0.00 | 0.00 | 91 | 1014.2 |
| 20260901113049 | 43 | 360 | 0.9 | 0.0 | 0.00 | 0.00 | 0.00 | 90 | 1014.0 |
| 20260901112547 | 43 | 360 | 0.9 | 0.0 | 0.00 | 0.00 | 0.00 | 89 | 1014.1 |
| 20260901112047 | 43 | 360 | 0.9 | 0.0 | 0.00 | 0.00 | 0.00 | 89 | 1014.0 |
| 20260901111548 | 43 | 360 | 0.9 | 0.0 | 0.00 | 0.00 | 0.00 | 89 | 1013.9 |
| 20260901111046 | 43 | 360 | 0.0 | 0.0 | 0.00 | 0.00 | 0.00 | 89 | 1013.9 |
| 20260901110546 | 43 | 360 | 0.9 | 0.0 | 0.00 | 0.00 | 0.00 | 89 | 1013.9 |
| 20260901110051 | 43 | 360 | 1.7 | 0.0 | 0.00 | 0.00 | 0.00 | 88 | 1013.9 |
| 20260901105546 | 43 | 360 | 1.7 | 0.0 | 0.00 | 0.00 | 0.00 | 88 | 1013.9 |
| 20260901105045 | 43 | 360 | 0.0 | 0.0 | 0.00 | 0.00 | 0.00 | 88 | 1014.0 |
| 20260901104544 | 43 | 360 | 0.0 | 0.0 | 0.00 | 0.00 | 0.00 | 88 | 1014.1 |
| 20260901104043 | 43 | 360 | 0.0 | 0.0 | 0.00 | 0.00 | 0.00 | 88 | 1014.0 |
| 20260901103044 | 44 | 360 | 0.0 | 0.0 | 0.00 | 0.00 | 0.00 | 88 | 1013.9 |
| 20260901102545 | 44 | 360 | 0.0 | 0.0 | 0.00 | 0.00 | 0.00 | 88 | 1013.7 |
| 20260901102044 | 44 | 360 | 0.0 | 0.0 | 0.00 | 0.00 | 0.00 | 89 | 1013.9 |
| 20260901101545 | 44 | 360 | 0.0 | 0.0 | 0.00 | 0.00 | 0.00 | 89 | 1013.8 |
| 20260901101043 | 43 | 360 | 0.0 | 0.0 | 0.00 | 0.00 | 0.00 | 88 | 1013.7 |
| 20260901100543 | 43 | 360 | 0.0 | 0.0 | 0.00 | 0.00 | 0.00 | 88 | 1013.5 |
| 20260901100046 | 43 | 360 | 0.0 | 0.0 | 0.00 | 0.00 | 0.00 | 88 | 1013.4 |
| 20260901095543 | 43 | 360 | 0.0 | 0.0 | 0.00 | 0.00 | 0.00 | 87 | 1013.4 |
| 20260901095042 | 43 | 360 | 0.9 | 0.0 | 0.00 | 0.00 | 0.00 | 88 | 1013.4 |
| 20260901094542 | 43 | 360 | 1.7 | 0.0 | 0.00 | 0.00 | 0.00 | 87 | 1013.5 |
| 20260901094043 | 43 | 360 | 1.7 | 0.0 | 0.00 | 0.00 | 0.00 | 87 | 1013.5 |
| 20260901093040 | 43 | 360 | 0.9 | 0.0 | 0.00 | 0.00 | 0.00 | 86 | 1013.5 |
| 20260901092543 | 43 | 360 | 0.0 | 0.0 | 0.00 | 0.00 | 0.00 | 86 | 1013.6 |
| 20260901092038 | 44 | 360 | 0.9 | 0.0 | 0.00 | 0.00 | 0.00 | 87 | 1013.5 |
| 20260901091547 | 44 | 360 | 0.9 | 0.0 | 0.00 | 0.00 | 0.00 | 86 | 1013.6 |
| 20260901091036 | 44 | 360 | 0.0 | 0.0 | 0.00 | 0.00 | 0.00 | 86 | 1013.5 |
| 20260901090537 | 45 | 360 | 0.0 | 0.0 | 0.00 | 0.00 | 0.00 | 87 | 1013.7 |
| 20260901090036 | 45 | 360 | 0.0 | 0.0 | 0.00 | 0.00 | 0.00 | 86 | 1013.6 |
| 20260901085535 | 45 | 360 | 0.9 | 0.0 | 0.00 | 0.00 | 0.00 | 86 | 1013.7 |
| 20260901085035 | 45 | 360 | 0.0 | 0.0 | 0.00 | 0.00 | 0.00 | 86 | 1013.7 |
| 20260901084534 | 45 | 360 | 0.0 | 0.0 | 0.00 | 0.00 | 0.00 | 87 | 1013.6 |
| 20260901084034 | 45 | 360 | 0.0 | 0.0 | 0.00 | 0.00 | 0.00 | 87 | 1013.5 |
| 20260901083032 | 44 | 360 | 0.0 | 0.0 | 0.00 | 0.00 | 0.00 | 86 | 1013.2 |
| 20260901082531 | 44 | 360 | 0.0 | 0.0 | 0.00 | 0.00 | 0.00 | 86 | 1013.1 |
| 20260901082032 | 44 | 360 | 0.0 | 0.0 | 0.00 | 0.00 | 0.00 | 85 | 1013.1 |
| 20260901081538 | 44 | 360 | 0.0 | 0.0 | 0.00 | 0.00 | 0.00 | 85 | 1013.2 |
| 20260901081030 | 45 | 360 | 0.0 | 0.0 | 0.00 | 0.00 | 0.00 | 84 | 1013.1 |
| 20260901080531 | 45 | 360 | 0.0 | 0.0 | 0.00 | 0.00 | 0.00 | 84 | 1013.2 |
| 20260901080030 | 46 | 360 | 0.0 | 0.0 | 0.00 | 0.00 | 0.00 | 84 | 1013.2 |
| 20260901075527 | 46 | 360 | 0.0 | 0.0 | 0.00 | 0.00 | 0.00 | 85 | 1013.2 |
| 20260901075028 | 46 | 360 | 0.0 | 0.0 | 0.00 | 0.00 | 0.00 | 84 | 1013.2 |
| 20260901074526 | 46 | 360 | 0.0 | 0.0 | 0.00 | 0.00 | 0.00 | 83 | 1013.2 |
| 20260901074025 | 46 | 360 | 0.0 | 0.0 | 0.00 | 0.00 | 0.00 | 84 | 1013.3 |
| 20260901073027 | 46 | 360 | 0.9 | 0.0 | 0.00 | 0.00 | 0.00 | 85 | 1013.3 |
| 20260901072525 | 46 | 360 | 0.9 | 0.0 | 0.00 | 0.00 | 0.00 | 84 | 1013.3 |
| 20260901072024 | 46 | 360 | 1.7 | 0.0 | 0.00 | 0.00 | 0.00 | 83 | 1013.3 |
| 20260901071525 | 46 | 360 | 0.9 | 0.0 | 0.00 | 0.00 | 0.00 | 82 | 1013.3 |
| 20260901071022 | 46 | 360 | 0.9 | 0.0 | 0.00 | 0.00 | 0.00 | 82 | 1013.2 |
| 20260901070520 | 47 | 360 | 0.9 | 0.0 | 0.00 | 0.00 | 0.00 | 82 | 1013.1 |
| 20260901070022 | 47 | 360 | 1.7 | 0.0 | 0.00 | 0.00 | 0.00 | 82 | 1013.1 |
| 20260901065521 | 47 | 360 | 1.7 | 0.0 | 0.00 | 0.00 | 0.00 | 81 | 1013.0 |
| 20260901065020 | 47 | 360 | 0.9 | 0.0 | 0.00 | 0.00 | 0.00 | 80 | 1013.1 |
| 20260901064523 | 47 | 360 | 0.9 | 0.0 | 0.00 | 0.00 | 0.00 | 80 | 1013.1 |
| 20260901064018 | 48 | 360 | 0.0 | 0.0 | 0.00 | 0.00 | 0.00 | 79 | 1013.2 |
| 20260901063027 | 49 | 360 | 0.0 | 0.0 | 0.00 | 0.00 | 0.00 | 78 | 1012.9 |
| 20260901062519 | 49 | 360 | 0.9 | 0.0 | 0.00 | 0.00 | 0.00 | 78 | 1012.8 |
| 20260901062013 | 50 | 360 | 0.9 | 0.0 | 0.00 | 0.00 | 0.00 | 77 | 1012.9 |
| 20260901061512 | 50 | 360 | 0.9 | 0.0 | 0.00 | 0.00 | 0.00 | 77 | 1012.9 |
| 20260901061010 | 50 | 360 | 1.7 | 0.0 | 0.00 | 0.00 | 0.00 | 77 | 1012.9 |
| 20260901060512 | 50 | 360 | 1.7 | 0.0 | 0.00 | 0.00 | 0.00 | 76 | 1012.8 |
| 20260901060010 | 51 | 360 | 0.0 | 0.0 | 0.00 | 0.00 | 0.00 | 76 | 1012.7 |
| 20260901055508 | 51 | 360 | 0.0 | 0.0 | 0.00 | 0.00 | 0.00 | 77 | 1012.5 |
| 20260901055009 | 50 | 360 | 0.0 | 0.0 | 0.00 | 0.00 | 0.00 | 76 | 1012.6 |
| 20260901054520 | 51 | 360 | 0.0 | 0.0 | 0.00 | 0.00 | 0.00 | 76 | 1012.5 |
| 20260901054008 | 51 | 360 | 0.0 | 0.0 | 0.00 | 0.00 | 0.00 | 76 | 1012.3 |
| 20260901053010 | 51 | 360 | 0.0 | 0.0 | 0.00 | 0.00 | 0.00 | 74 | 1012.1 |
| 20260901052508 | 52 | 360 | 0.0 | 0.0 | 0.00 | 0.00 | 0.00 | 75 | 1012.1 |
| 20260901052008 | 52 | 360 | 0.0 | 0.0 | 0.00 | 0.00 | 0.00 | 76 | 1012.3 |
| 20260901051508 | 52 | 360 | 0.0 | 0.0 | 0.00 | 0.00 | 0.00 | 76 | 1012.2 |
| 20260901051011 | 52 | 360 | 0.0 | 0.0 | 0.00 | 0.00 | 0.00 | 77 | 1012.1 |
| 20260901050509 | 51 | 360 | 0.0 | 0.0 | 0.00 | 0.00 | 0.00 | 77 | 1012.1 |
| 20260901050007 | 51 | 360 | 0.0 | 0.0 | 0.00 | 0.00 | 0.00 | 76 | 1012.0 |
| 20260901045507 | 51 | 360 | 0.0 | 0.0 | 0.00 | 0.00 | 0.00 | 75 | 1012.0 |
| 20260901045009 | 51 | 360 | 0.0 | 0.0 | 0.00 | 0.00 | 0.00 | 75 | 1012.4 |
| 20260901044507 | 51 | 360 | 0.0 | 0.0 | 0.00 | 0.00 | 0.00 | 74 | 1012.4 |
| 20260901044007 | 51 | 360 | 0.9 | 0.0 | 0.00 | 0.00 | 0.00 | 72 | 1012.4 |
| 20260901043010 | 53 | 360 | 0.9 | 0.0 | 0.00 | 0.00 | 0.00 | 70 | 1012.4 |
| 20260901042508 | 54 | 360 | 0.9 | 0.0 | 0.00 | 0.00 | 0.00 | 69 | 1012.5 |
| 20260901042007 | 54 | 360 | 0.9 | 0.0 | 0.00 | 0.00 | 0.00 | 68 | 1012.4 |
| 20260901041507 | 55 | 360 | 0.0 | 0.0 | 0.00 | 0.00 | 0.00 | 66 | 1012.4 |
| 20260901041007 | 56 | 360 | 0.9 | 0.0 | 0.00 | 0.00 | 0.00 | 65 | 1012.5 |
| 20260901040507 | 57 | 360 | 0.9 | 0.0 | 0.00 | 0.00 | 0.00 | 63 | 1012.5 |
| 20260901040007 | 58 | 360 | 0.9 | 0.0 | 0.00 | 0.00 | 0.00 | 62 | 1012.5 |
| 20260901035509 | 59 | 360 | 0.9 | 0.0 | 0.00 | 0.00 | 0.00 | 62 | 1012.5 |
| 20260901035007 | 59 | 360 | 1.7 | 0.0 | 0.00 | 0.00 | 0.00 | 61 | 1012.4 |
| 20260901034512 | 59 | 360 | 1.7 | 0.0 | 0.00 | 0.00 | 0.00 | 62 | 1012.4 |
| 20260901034005 | 59 | 360 | 1.7 | 0.0 | 0.00 | 0.00 | 0.00 | 62 | 1012.4 |
| 20260901033007 | 59 | 360 | 1.7 | 0.0 | 0.00 | 0.00 | 0.00 | 61 | 1012.2 |
| 20260901032504 | 60 | 360 | 2.6 | 0.0 | 0.00 | 0.00 | 0.00 | 60 | 1012.1 |
| 20260901032004 | 60 | 360 | 2.6 | 0.0 | 0.00 | 0.00 | 0.00 | 58 | 1012.1 |
| 20260901031508 | 61 | 360 | 2.6 | 0.0 | 0.00 | 0.00 | 0.00 | 57 | 1012.0 |
| 20260901031003 | 62 | 360 | 2.6 | 0.0 | 0.00 | 0.00 | 0.00 | 56 | 1012.1 |
| 20260901030502 | 63 | 360 | 2.6 | 0.0 | 0.00 | 0.00 | 0.00 | 54 | 1012.0 |
| 20260901030003 | 63 | 360 | 2.6 | 0.0 | 0.00 | 0.00 | 0.00 | 55 | 1011.9 |
| 20260901025502 | 63 | 360 | 1.7 | 0.0 | 0.00 | 0.00 | 0.00 | 54 | 1011.9 |
| 20260901025003 | 63 | 360 | 0.9 | 0.0 | 0.00 | 0.00 | 0.00 | 53 | 1011.9 |
| 20260901024502 | 64 | 360 | 0.9 | 0.0 | 0.00 | 0.00 | 0.00 | 54 | 1011.8 |
| 20260901024004 | 64 | 360 | 0.0 | 0.0 | 0.00 | 0.00 | 0.00 | 54 | 1011.6 |
| 20260901023005 | 65 | 360 | 0.9 | 0.0 | 0.00 | 0.00 | 0.00 | 52 | 1011.4 |
| 20260901022602 | 65 | 360 | 0.0 | 0.0 | 0.00 | 0.00 | 0.00 | 51 | 1011.3 |
| 20260901022100 | 66 | 360 | 0.9 | 0.0 | 0.00 | 0.00 | 0.00 | 50 | 1011.3 |
| 20260901021601 | 67 | 360 | 1.7 | 0.0 | 0.00 | 0.00 | 0.00 | 50 | 1011.1 |
| 20260901021057 | 67 | 360 | 1.7 | 0.0 | 0.00 | 0.00 | 0.00 | 49 | 1011.0 |
| 20260901020600 | 68 | 360 | 2.6 | 0.0 | 0.00 | 0.00 | 0.00 | 48 | 1010.9 |
| 20260901020057 | 68 | 360 | 2.6 | 0.0 | 0.00 | 0.00 | 0.00 | 48 | 1010.9 |
| 20260901015558 | 69 | 360 | 2.6 | 0.0 | 0.00 | 0.00 | 0.00 | 46 | 1010.7 |
| 20260901015056 | 70 | 360 | 2.6 | 0.0 | 0.00 | 0.00 | 0.00 | 45 | 1010.7 |
| 20260901014556 | 70 | 360 | 3.5 | 0.0 | 0.00 | 0.00 | 0.00 | 45 | 1010.6 |
| 20260901014055 | 71 | 360 | 4.3 | 0.0 | 0.00 | 0.00 | 0.00 | 44 | 1010.4 |
| 20260901013109 | 73 | 360 | 6.1 | 0.0 | 0.00 | 0.00 | 0.00 | 42 | 1010.4 |
| 20260901012552 | 73 | 360 | 7.0 | 0.0 | 0.00 | 0.00 | 0.00 | 41 | 1010.2 |
| 20260901012052 | 74 | 296 | 7.0 | 0.0 | 0.00 | 0.00 | 0.00 | 41 | 1010.2 |
| 20260901011556 | 74 | 360 | 6.1 | 0.0 | 0.00 | 0.00 | 0.00 | 40 | 1010.0 |
| 20260901011051 | 75 | 360 | 7.0 | 0.0 | 0.00 | 0.00 | 0.00 | 39 | 1010.0 |
| 20260901010551 | 75 | 286 | 9.6 | 0.0 | 0.00 | 0.00 | 0.00 | 39 | 1010.0 |
| 20260901010052 | 76 | 288 | 12.2 | 0.0 | 0.00 | 0.00 | 0.00 | 38 | 1009.9 |
| 20260901005554 | 76 | 293 | 12.2 | 0.0 | 0.00 | 0.00 | 0.00 | 38 | 1009.9 |
| 20260901005050 | 76 | 305 | 11.3 | 0.0 | 0.00 | 0.00 | 0.00 | 38 | 1009.8 |
| 20260901004554 | 76 | 285 | 11.3 | 0.0 | 0.00 | 0.00 | 0.00 | 38 | 1009.9 |
| 20260901004050 | 76 | 309 | 12.2 | 0.0 | 0.00 | 0.00 | 0.00 | 37 | 1009.9 |
| 20260901003051 | 77 | 295 | 12.2 | 0.0 | 0.00 | 0.00 | 0.00 | 36 | 1009.9 |
| 20260901002551 | 77 | 287 | 13.9 | 0.0 | 0.00 | 0.00 | 0.00 | 36 | 1009.8 |
| 20260901002051 | 77 | 282 | 13.9 | 0.0 | 0.00 | 0.00 | 0.00 | 36 | 1009.9 |
| 20260901001551 | 78 | 287 | 13.9 | 0.0 | 0.00 | 0.00 | 0.00 | 37 | 1009.9 |
| 20260901001050 | 78 | 291 | 13.9 | 0.0 | 0.00 | 0.00 | 0.00 | 36 | 1009.8 |
| 20260901000550 | 78 | 291 | 13.9 | 0.0 | 0.00 | 0.00 | 0.00 | 35 | 1009.7 |
| 20260901000049 | 78 | 275 | 13.9 | 0.0 | 0.00 | 0.00 | 0.00 | 35 | 1009.7 |
| 20260831235549 | 78 | 290 | 13.0 | 0.0 | 0.00 | 0.00 | 0.00 | 35 | 1009.7 |
| 20260831235049 | 79 | 290 | 13.0 | 0.0 | 0.00 | 0.00 | 0.00 | 35 | 1009.7 |
| 20260831234555 | 79 | 360 | 13.0 | 0.0 | 0.00 | 0.00 | 0.00 | 35 | 1009.6 |
| 20260831234051 | 79 | 292 | 13.9 | 0.0 | 0.00 | 0.00 | 0.00 | 35 | 1009.6 |
| 20260831233049 | 79 | 360 | 13.9 | 0.0 | 0.00 | 0.00 | 0.00 | 35 | 1009.7 |
| 20260831232548 | 79 | 316 | 13.0 | 0.0 | 0.00 | 0.00 | 0.00 | 35 | 1009.6 |
| 20260831232048 | 79 | 269 | 15.6 | 0.0 | 0.00 | 0.00 | 0.00 | 35 | 1009.7 |
| 20260831231549 | 79 | 317 | 15.6 | 0.0 | 0.00 | 0.00 | 0.00 | 35 | 1009.6 |
| 20260831231050 | 80 | 275 | 16.5 | 0.0 | 0.00 | 0.00 | 0.00 | 34 | 1009.6 |
| 20260831230548 | 79 | 275 | 16.5 | 0.0 | 0.00 | 0.00 | 0.00 | 34 | 1009.7 |
| 20260831230048 | 80 | 287 | 14.8 | 0.0 | 0.00 | 0.00 | 0.00 | 33 | 1009.6 |
| 20260831225547 | 80 | 275 | 13.9 | 0.0 | 0.00 | 0.00 | 0.00 | 34 | 1009.5 |
| 20260831225047 | 80 | 277 | 15.6 | 0.0 | 0.00 | 0.00 | 0.00 | 35 | 1009.6 |
| 20260831224546 | 80 | 273 | 15.6 | 0.0 | 0.00 | 0.00 | 0.00 | 34 | 1009.6 |
| 20260831224049 | 80 | 296 | 14.8 | 0.0 | 0.00 | 0.00 | 0.00 | 34 | 1009.5 |
| 20260831223049 | 80 | 294 | 16.5 | 0.0 | 0.00 | 0.00 | 0.00 | 34 | 1009.4 |
| 20260831222546 | 80 | 269 | 15.6 | 0.0 | 0.00 | 0.00 | 0.00 | 33 | 1009.4 |
| 20260831222044 | 80 | 277 | 16.5 | 0.0 | 0.00 | 0.00 | 0.00 | 33 | 1009.4 |
| 20260831221559 | 80 | 268 | 17.4 | 0.0 | 0.00 | 0.00 | 0.00 | 33 | 1009.4 |
| 20260831221044 | 80 | 284 | 18.2 | 0.0 | 0.00 | 0.00 | 0.00 | 34 | 1009.2 |
| 20260831220544 | 80 | 304 | 17.4 | 0.0 | 0.00 | 0.00 | 0.00 | 34 | 1009.3 |
| 20260831220044 | 80 | 311 | 17.4 | 0.0 | 0.00 | 0.00 | 0.00 | 33 | 1008.7 |
| 20260831215544 | 80 | 288 | 18.2 | 0.0 | 0.00 | 0.00 | 0.00 | 33 | 1009.3 |
| 20260831215044 | 80 | 269 | 15.6 | 0.0 | 0.00 | 0.00 | 0.00 | 33 | 1009.0 |
| 20260831214544 | 80 | 235 | 16.5 | 0.0 | 0.00 | 0.00 | 0.00 | 34 | 1009.2 |
| 20260831214043 | 81 | 279 | 17.4 | 0.0 | 0.00 | 0.00 | 0.00 | 33 | 1009.2 |
| 20260831213045 | 80 | 300 | 19.1 | 0.0 | 0.00 | 0.00 | 0.00 | 34 | 1009.1 |
| 20260831212543 | 80 | 280 | 18.2 | 0.0 | 0.00 | 0.00 | 0.00 | 34 | 1009.1 |
| 20260831212045 | 80 | 291 | 16.5 | 0.0 | 0.00 | 0.00 | 0.00 | 33 | 1009.2 |
| 20260831211543 | 79 | 292 | 16.5 | 0.0 | 0.00 | 0.00 | 0.00 | 35 | 1009.2 |
| 20260831211043 | 80 | 360 | 17.4 | 0.0 | 0.00 | 0.00 | 0.00 | 34 | 1009.2 |
| 20260831210541 | 80 | 265 | 17.4 | 0.0 | 0.00 | 0.00 | 0.00 | 35 | 1009.1 |
| 20260831210041 | 80 | 275 | 17.4 | 0.0 | 0.00 | 0.00 | 0.00 | 34 | 1009.2 |
| 20260831205544 | 80 | 273 | 19.1 | 0.0 | 0.00 | 0.00 | 0.00 | 35 | 1009.0 |
| 20260831205041 | 80 | 294 | 18.2 | 0.0 | 0.00 | 0.00 | 0.00 | 34 | 1009.0 |
| 20260831204541 | 80 | 306 | 16.5 | 0.0 | 0.00 | 0.00 | 0.00 | 35 | 1009.0 |
| 20260831204042 | 79 | 269 | 17.4 | 0.0 | 0.00 | 0.00 | 0.00 | 36 | 1009.1 |
| 20260831203055 | 79 | 262 | 17.4 | 0.0 | 0.00 | 0.00 | 0.00 | 35 | 1009.1 |
| 20260831202538 | 79 | 267 | 17.4 | 0.0 | 0.00 | 0.00 | 0.00 | 37 | 1009.0 |
| 20260831202040 | 80 | 285 | 17.4 | 0.0 | 0.00 | 0.00 | 0.00 | 35 | 1009.0 |
| 20260831201537 | 80 | 360 | 17.4 | 0.0 | 0.00 | 0.00 | 0.00 | 37 | 1009.0 |
| 20260831201038 | 80 | 269 | 18.2 | 0.0 | 0.00 | 0.00 | 0.00 | 36 | 1008.8 |
| 20260831200537 | 80 | 282 | 20.0 | 0.0 | 0.00 | 0.00 | 0.00 | 37 | 1009.0 |
| 20260831200112 | 79 | 273 | 19.1 | 0.0 | 0.00 | 0.00 | 0.00 | 37 | 1008.9 |
| 20260831195539 | 79 | 279 | 16.5 | 0.0 | 0.00 | 0.00 | 0.00 | 37 | 1008.8 |
| 20260831195035 | 79 | 277 | 16.5 | 0.0 | 0.00 | 0.00 | 0.00 | 39 | 1008.7 |
| 20260831194537 | 79 | 360 | 16.5 | 0.0 | 0.00 | 0.00 | 0.00 | 38 | 1008.9 |
| 20260831194035 | 79 | 270 | 15.6 | 0.0 | 0.00 | 0.00 | 0.00 | 37 | 1008.9 |
| 20260831193035 | 78 | 360 | 17.4 | 0.0 | 0.00 | 0.00 | 0.00 | 38 | 1008.7 |
| 20260831192538 | 78 | 360 | 17.4 | 0.0 | 0.00 | 0.00 | 0.00 | 39 | 1008.7 |
| 20260831192035 | 78 | 273 | 18.2 | 0.0 | 0.00 | 0.00 | 0.00 | 39 | 1008.7 |
| 20260831191534 | 78 | 360 | 19.1 | 0.0 | 0.00 | 0.00 | 0.00 | 38 | 1008.7 |
| 20260831191033 | 77 | 260 | 20.9 | 0.0 | 0.00 | 0.00 | 0.00 | 40 | 1008.7 |
| 20260831190535 | 77 | 279 | 20.0 | 0.0 | 0.00 | 0.00 | 0.00 | 39 | 1008.6 |